EA5AER-5 Weather Reports


time (UTC)temp
C
wind
direction
speed
KPH
gust
KPH
rain 1hr
cm
rain 24hr
cm
rain mn
cm
humidity
%
barometer
mb
20260504080556 18 152 0.0 4.8 0.00 0.00 0.00 83 1010.2
20260504070353 18 152 0.0 4.8 0.00 0.00 0.00 83 1010.2
20260504050648 17 300 1.6 4.8 0.00 0.00 0.00 84 1010.2
20260504044644 17 300 1.6 4.8 0.00 0.00 0.00 84 1010.2
20260504042539 17 300 1.6 4.8 0.00 0.00 0.00 84 1010.2
20260504040659 17 279 3.2 4.8 0.00 0.00 0.00 83 1011.0
20260504034633 17 279 3.2 4.8 0.00 0.00 0.00 83 1011.0
20260504032631 17 279 3.2 4.8 0.00 0.00 0.00 83 1011.0
20260504030449 17 279 3.2 4.8 0.00 0.00 0.00 83 1011.0
20260504024504 18 331 1.6 4.8 0.00 0.00 0.00 81 1011.0
20260504022513 18 331 1.6 4.8 0.00 0.00 0.00 81 1011.0
20260504020502 18 192 0.0 3.2 0.00 0.00 0.00 81 1011.1
20260504014609 18 192 0.0 3.2 0.00 0.00 0.00 81 1011.1
20260504012753 18 192 0.0 3.2 0.00 0.00 0.00 81 1011.1
20260504010548 18 192 1.6 3.2 0.00 0.00 0.00 81 1011.0
20260504004610 18 227 0.0 1.6 0.00 0.00 0.00 80 1011.2
20260504002726 18 227 0.0 1.6 0.00 0.00 0.00 80 1011.2
20260504000701 18 256 1.6 3.2 0.00 0.00 0.00 80 1011.4
20260503234854 18 160 1.6 3.2 0.00 0.00 0.00 80 1011.5
20260503232813 18 219 1.6 3.2 0.00 0.00 0.00 80 1011.9
20260503230744 18 219 1.6 3.2 0.00 0.00 0.00 80 1011.9
20260503224754 18 219 0.0 3.2 0.00 0.00 0.00 81 1012.0
20260503222813 18 219 0.0 3.2 0.00 0.00 0.00 81 1012.0
20260503220821 17 234 1.6 4.8 0.00 0.00 0.00 81 1012.2
20260503214834 17 234 1.6 4.8 0.00 0.00 0.00 81 1012.2
20260503212816 17 234 1.6 4.8 0.00 0.00 0.00 81 1012.2
20260503210924 17 244 6.4 8.0 0.00 0.00 0.00 81 1012.0
20260503204954 17 257 3.2 4.8 0.00 0.00 0.00 81 1011.7
20260503203046 17 257 3.2 4.8 0.00 0.00 0.00 81 1011.7
20260503201045 18 328 0.0 3.2 0.00 0.00 0.00 80 1011.2
20260503195053 18 328 0.0 3.2 0.00 0.00 0.00 80 1011.2
20260503193149 18 73 1.6 4.8 0.00 0.00 0.00 80 1010.8
20260503191139 18 73 1.6 4.8 0.00 0.00 0.00 80 1010.8
20260503185144 18 73 1.6 4.8 0.00 0.00 0.00 80 1010.8
20260503182959 18 58 3.2 9.7 0.00 0.00 0.00 78 1010.4
20260503181124 18 58 3.2 9.7 0.00 0.00 0.00 78 1010.4
20260503175127 18 73 4.8 8.0 0.00 0.00 0.00 79 1010.6
20260503173137 18 73 8.0 12.9 0.00 0.00 0.00 78 1010.8
20260503171146 18 73 8.0 12.9 0.00 0.00 0.00 78 1010.8